World > North America > United States > Mississippi > Eupora  

Eupora, MS Hourly Weather Updates

Feedback E-mail the Weather

Quick Clicks

Eupora, MS Weather Maps

°F °C°F °C
Eupora Weather Map
UTC Time: 6/14/2024, 08:47
Your Time:

Eupora, MS Regional Weather

Expires:202406140900;;990913
ASUS44 KJAN 140810
RWRMS 

MISSISSIPPI HOURLY WEATHER ROUNDUP
NATIONAL WEATHER SERVICE JACKSON MS
300 AM CDT FRI JUN 14 2024

NOTE: "FAIR: INDICATES FEW OR NO CLOUDS BELOW 12,000 FEET WITH NO
SIGNIFICANT WEATHER AND/OR OBSTRUCTIONS TO VISIBILITY.


MSZ003>006-009-014>017-022>024-029>033-037>039-140900-
NORTHEAST MISSISSIPPI
  
CITY           SKY/WX    TMP DP  RH WIND       PRES   REMARKS
ABERDEEN       CLEAR     66  66 100 CALM      29.98R                  
COLUMBUS AFB   CLEAR     68  66  91 CALM      29.92S                  
CORINTH        CLEAR     64  64 100 CALM      29.98F FOG              
GOLDN TRIANGLE CLEAR     67  66  97 CALM      29.97R                  
IUKA           CLEAR     67  67 100 CALM      29.98S                  
LOUISVILLE     CLEAR     64  63  94 CALM      30.00R                  
STARKVILLE     CLEAR     66  66 100 CALM      29.95R                  
TUPELO         CLEAR     70  65  84 N7        29.98R                  
$$


SKY/WX - Weather  TMP - Temperature  DP - Dew Point  RH - Humidity
WIND - Wind Direction/Speed PRES - Barometric Pressure VSB - Visibility
WCI - Wind Chill Index E13G22 Wind - East Wind 13 mph/Gusts of 22 mph

Trending Headlines

Trending Entertainment Headlines

Eupora Radar Loop

Use the map search tool if you want to place a location marker on the radar map...

Eupora Quick Facts

National Two Day Weather Forecast


E-mail the Eupora Weather Forecast

Voice your opinion or tell us about page issues...